Regional Weather Roundup
Issued by NWS State College, PA

Home | Current Version | Previous Version | Text Only | Print | Product List | Glossary On
Versions: 1 2 3 4 5 6 7 8 9 10 11 12 13 14 15 16 17 18 19 20 21 22 23 24 25 26 27 28 29 30 31 32 33 34 35 36 37 38 39 40 41 42 43 44 45 46 47 48 49 50
000
ASUS41 KCTP 260203
RWRCTP

REGIONAL WEATHER ROUNDUP
NATIONAL WEATHER SERVICE STATE COLLEGE PA
1000 PM EDT SAT APR 25 2015

Note: "fair" indicates few or no clouds below 12,000 feet with no
significant weather and/or obstructions to visibility.

* = STATION THAT DOES NOT REPORT PRECIPITATION /E.G. RAIN...SNOW...ETC/
    THUNDER OR FOG.

PAZ002>004-007>009-013>016-020>023-029>032-260300-
WESTERN PENNSYLVANIA

CITY           SKY/WX    TMP DP  RH WIND       PRES   REMARKS
ERIE           PTCLDY    41  25  53 NE10      29.78S
MEADVILLE      MOCLDY    41  25  53 N13       29.74R
FRANKLIN*      MOCLDY    43  25  49 N12       29.74R
NEW CASTLE     FAIR      46  27  48 N9        29.72F
BEAVER COUNTY  NOT AVBL
BUTLER*        CLOUDY    45  30  57 NE3       29.71F
PITTSBURGH INT CLOUDY    51  19  28 NE6       29.67F
PITTSBURGH     CLOUDY    49  16  26 N3        29.66F
INDIANA*       CLEAR     48  23  37 CALM      29.73F
LATROBE        NOT AVBL
WASHINGTON CO* CLOUDY    46  34  61 E8        29.66F
$$

PAZ004>006-010>012-017>019-024>028-033>037-041-042-045-046-049>053-260300-
CENTRAL PENNSYLVANIA

CITY           SKY/WX    TMP DP  RH WIND       PRES   REMARKS
BRADFORD       CLEAR     42  24  49 NE9       29.73R
DUBOIS         CLOUDY    48  16  27 CALM      29.69S
CLEARFIELD     CLOUDY    44  22  41 N3        29.71R
JOHNSTOWN      CLOUDY    43  27  53 S6        29.69R
ALTOONA        CLOUDY    44  31  60 SW7       29.71R
STATE COLLEGE  NOT AVBL
WILLIAMSPORT   MOCLDY    48  26  42 E7        29.73R
SELINSGROVE    CLOUDY    44  35  70 NW5       29.72S
FT INDIANTOWN  CLOUDY    46  28  47 NW1       29.71S
CAPITAL CITY   CLOUDY    49  27  42 W6        29.72S
HARRISBURG     CLOUDY    51  24  34 CALM      29.71S
YORK           CLOUDY    47  29  49 CALM      29.72S
$$

PAZ038>040-043-044-047-048-054-055-060>062-067>071-260300-
EASTERN PENNSYLVANIA

CITY           SKY/WX    TMP DP  RH WIND       PRES   REMARKS
SCRANTON       CLEAR     47  26  44 NE6       29.73R
MOUNT POCONO   PTCLDY    42  23  46 N7        29.70S
ALLENTOWN      CLOUDY    51  25  36 N3        29.70F
QUAKERTOWN*    CLOUDY    46  32  57 CALM      29.71S
READING        CLOUDY    51  23  33 CALM      29.70S
LANCASTER      CLOUDY    50  24  36 CALM      29.71S
COATESVILLE    CLOUDY    46  34  61 W3        29.72S
POTTSTOWN      CLOUDY    49  25  39 CALM      29.72F
BLUE BELL      CLOUDY    48  32  53 CALM      29.70F
DOYLESTOWN     CLOUDY    49  26  41 SW3       29.70S
WILLOW GROVE   NOT AVBL
NORTH PHILA    CLOUDY    52  26  36 SW6       29.73S
PHILADELPHIA   CLOUDY    51  29  42 SW9       29.72F
$$



USA.gov is the U.S. government's official web portal to all federal, state and local government web resources and services.